This is the latest recevied weather packets stored in our database for station/object K0NV. If no packets are shown the sender has not sent any weather packets the latest 10 day(s).
| Time | Temp. | Humidity | Pressure | Rain* | Wind** | Luminosity | Snow |
|---|---|---|---|---|---|---|---|
| 1777835420 | 24.44° C | 47% | 1016.4 hPa | 0 mm | - | 701 W/m² | - |
| 1777835116 | 25° C | 46% | 1016.3 hPa | 0 mm | - | 717 W/m² | - |
| 1777834808 | 24.44° C | 46% | 1016.2 hPa | 0 mm | - | 725 W/m² | - |
| 1777834503 | 24.44° C | 45% | 1016.5 hPa | 0 mm | - | 729 W/m² | - |
| 1777834198 | 23.89° C | 46% | 1016.3 hPa | 0 mm | - | 734 W/m² | - |
| 1777833895 | 23.89° C | 48% | 1016.5 hPa | 0 mm | - | 746 W/m² | - |
| 1777833591 | 23.89° C | 49% | 1016.6 hPa | 0 mm | - | 741 W/m² | - |
| 1777833288 | 23.33° C | 47% | 1016.7 hPa | 0 mm | - | 743 W/m² | - |
| 1777832985 | 23.33° C | 47% | 1017 hPa | 0 mm | - | 752 W/m² | - |
| 1777832684 | 23.33° C | 50% | 1016.7 hPa | 0 mm | - | 757 W/m² | - |
| 1777832381 | 23.33° C | 50% | 1016.7 hPa | 0 mm | - | 757 W/m² | - |
| 1777832078 | 22.78° C | 50% | 1017.1 hPa | 0 mm | - | 745 W/m² | - |
| 1777831774 | 22.78° C | 50% | 1017.1 hPa | 0 mm | - | 763 W/m² | - |
| 1777831472 | 22.78° C | 48% | 1017.2 hPa | 0 mm | - | 751 W/m² | - |
| 1777831169 | 22.78° C | 51% | 1017.3 hPa | 0 mm | - | 747 W/m² | - |
| 1777830867 | 22.78° C | 48% | 1017.6 hPa | 0 mm | - | 766 W/m² | - |
| 1777830562 | 22.78° C | 50% | 1017.5 hPa | 0 mm | - | 776 W/m² | - |
| 1777830261 | 22.22° C | 51% | 1017.7 hPa | 0 mm | - | 766 W/m² | - |
| 1777829961 | 22.22° C | 51% | 1017.7 hPa | 0 mm | - | 762 W/m² | - |
| 1777829657 | 21.67° C | 53% | 1017.8 hPa | 0 mm | - | 772 W/m² | - |
| 1777829354 | 21.67° C | 51% | 1017.9 hPa | 0 mm | - | 785 W/m² | - |
| 1777829052 | 22.22° C | 50% | 1017.8 hPa | 0 mm | - | 783 W/m² | - |
| 1777828747 | 21.67° C | 54% | 1018 hPa | 0 mm | - | 781 W/m² | - |
| 1777828444 | 22.22° C | 53% | 1018.1 hPa | 0 mm | - | 780 W/m² | - |
| 1777828142 | 21.67° C | 52% | 1018.2 hPa | 0 mm | - | 783 W/m² | - |
* Rain latest hour (hover to see other rain measurements)
** Current wind speed in m/s (hover to see current wind gust speed)